Regional Weather Roundup
Issued by NWS

Home | Current Version | Previous Version | Graphics & Text | Print | Product List | Glossary On
Versions: 1 2 3 4 5 6 7 8 9 10 11 12 13 14 15 16 17 18 19 20 21 22 23 24 25 26 27 28 29 30 31 32 33 34 35 36 37 38 39 40 41 42 43 44 45 46 47 48 49 50
000
ASUS45 KTFX 180219
RWRMT
MONTANA HOURLY WEATHER ROUNDUP
NATIONAL WEATHER SERVICE GREAT FALLS MT
719 PM MST WED DEC 17 2014

NOTE: "FAIR" INDICATES FEW OR NO CLOUDS BELOW 12000 FEET WITH NO
SIGNIFICANT WEATHER AND/OR OBSTRUCTIONS TO VISIBILITY.

* THESE STATIONS ARE NOT UNDER NWS QUALITY CONTROL. THEY DO NOT
   REPORT WEATHER SUCH AS PRECIPITATION OR FOG.

MTZ001>007-043-180300-
WEST OF THE DIVIDE
CITY           SKY/WX    TMP DP  RH WIND       PRES   REMARKS
KALISPELL      MOCLDY    25  23  92 CALM      29.95S
MISSOULA       PTCLDY    27  21  78 CALM      29.97R
BUTTE          PTCLDY    16  12  84 CALM      29.93R
MULLAN PASS    LGT SNOW  27  27 100 S3        29.87R
* ANACONDA     PTCLDY    27  19  72 N/A        N/A
* ESSEX        N/A       28  27  96 N/A        N/A
* EUREKA APT   MOCLDY    30  25  82 CALM      29.99R
* HAMILTON APT PTCLDY    28  23  81 S3        29.95R
* LIBBY APT    PTCLDY    30  27  89 CALM      29.97S
* LINCOLN      N/A       23  21  92 NE1        N/A
* LOOKOUT PASS N/A       30  27  89 NE1        N/A
* POLSON       N/A       25  25 100 N/A        N/A
* RONAN APT    CLEAR     30  27  89 N/A        N/A
* SEELEY LAKE  N/A       22  21  96 NE2        N/A
* THOMP F APT  PTCLDY    20  16  84 NE3        N/A
* YAAK HILL    N/A       34  28  79 N/A        N/A
$$

MTZ008-052>055-180300-
SOUTHWEST MONTANA
CITY           SKY/WX    TMP DP  RH WIND       PRES   REMARKS
BOZEMAN        CLEAR     23  18  81 S10       29.94R WCI  13
DILLON         PTCLDY    23  16  74 S7        29.95R WCI  15
* W YELLOWSTON CLEAR     24  21  88 S1         N/A
* THREE FORKS  PTCLDY    21   0  40 N/A        N/A
* BOULDER HILL N/A       27  19  72 S6G11      N/A   WCI  20
* MONIDA PASS  N/A       18  17  96 SE8        N/A   WCI   8
* RAYNOLDS PAS N/A       17   6  62 SW6        N/A   WCI   8
* WHITEHALL    N/A       26  21  81 NW6        N/A   WCI  19
* WISE RIVER   N/A       19  16  88 S2         N/A
$$

MTZ009>010-012-014-046-048-049-054-180300-
EAST SLOPES AND CENTRAL MONTANA
CITY           SKY/WX    TMP DP  RH WIND       PRES   REMARKS
CUT BANK       FOG        9   3  76 N5        29.86R VSB 1/2
GREAT FALLS    CLEAR     30  25  82 S12       29.86R WCI  20
HELENA         CLEAR     27  21  78 S5        29.93R WCI  21
MALMSTROM AFB  CLEAR     27  25  92 SW7       29.89R WCI  19
* CONRAD       CLEAR     19  18  96 CALM       N/A
* DEARBORN     N/A       30  26  85 S2         N/A
* EAST GLACIER N/A       33  22  64 W13G23     N/A   WCI  24
* MONARCH      N/A       28  16  61 S6         N/A   WCI  21
* PENDROY      N/A       24  22  92 W3         N/A
* ROGERS PASS  N/A       28  22  78 SE3G12     N/A
* SWEET GRASS  N/A       18  18 100 S9         N/A   WCI   7
* WHITE SULPH  N/A       27  18  69 S6G12      N/A   WCI  20
$$

MTZ011-013-016-021-035-040-045-047-050-051-180300-
NORTH CENTRAL MONTANA
CITY           SKY/WX    TMP DP  RH WIND       PRES   REMARKS
HAVRE          CLEAR     19  18  96 E5        29.92R WCI  12
LEWISTOWN      CLOUDY    30  27  89 S6        29.87S WCI  24
* N BAR RANCH  CLOUDY    30  28  92 CALM      29.89R
* CHINOOK      CLEAR     27  23  85 E7        29.93S WCI  19
* CHESTER      N/A       21  19  92 NE3        N/A
* DENTON       N/A       29  28  96 SE1        N/A
* GEYSER       N/A       29  21  72 NE2        N/A
* JUDITH GAP   N/A       26  25  96 W5         N/A   WCI  20
* LOMA         N/A       26  24  92 NE8        N/A   WCI  18
$$

MTZ017>020-022>027-061-062-180300-
NORTHEAST MONTANA
CITY           SKY/WX    TMP DP  RH WIND       PRES   REMARKS
GLASGOW        CLOUDY    23  18  81 E9        29.98F WCI  13
GLENDIVE       MOCLDY    21  18  88 SE7       30.01F WCI  12
JORDAN         PTCLDY    27  21  78 SE7       29.96R WCI  19
SIDNEY         CLOUDY    21  16  81 E8        30.07F WCI  11
WOLF POINT     CLOUDY    25  18  75 E7        30.03F WCI  17
* BEAVER HILL  N/A       19  17  92 SE7        N/A   WCI  10
* CIRCLE       N/A       25  22  88 SE5        N/A   WCI  19
* LINDSAY DVD  N/A       19  18  96 SE4        N/A
* NAVAJO       N/A       17  15  92 S8         N/A   WCI   7
* PLENTYWOOD A PTCLDY    18  16  92 SE10      30.05F WCI   6
* POPLAR APT   PTCLDY    21  18  88 E6        30.04F WCI  13
* SACO         N/A       23  19  85 E8         N/A   WCI  14
$$

MTZ028>042-056>058-180300-
SOUTHCENTRAL AND SOUTHEAST MONTANA
CITY           SKY/WX    TMP DP  RH WIND       PRES   REMARKS
BAKER          CLOUDY    19  19 100 SE14      30.00S WCI   5
BILLINGS       MOCLDY    30  21  69 SW18      29.92S WCI  18
LIVINGSTON     CLEAR     30  19  64 SW12      29.89S WCI  20
MILES CITY     CLOUDY    25  19  78 SE7       29.97F WCI  17
* BIG TIMBER A CLEAR     34  19  54 SW9       29.90S WCI  27
* FORSYTH APT  PTCLDY    27  25  92 CALM      29.95F
* LAUREL APT   MOCLDY    30  16  56 S7         N/A   WCI  23
* ROUNDUP APT  CLOUDY    28  23  81 N/A        N/A
* ALZADA       N/A       20  18  92 SE4        N/A
* HYSHAM       N/A       24  19  81 W4         N/A
* LAME DEER    N/A       26  25  96 N/A        N/A
* REED POINT   N/A       29  27  92 SE2        N/A
* ROSCOE HILL  N/A       28  14  56 SE11       N/A   WCI  18
$$

REGIONAL REPORTS...DAKOTAS
CITY           SKY/WX    TMP DP  RH WIND       PRES   REMARKS
WILLISTON      CLOUDY    19  14  81 SE7       30.09S WCI  10
DICKINSON      CLOUDY    18  14  84 S12       30.04F WCI   5
BEACH          LGT SNOW  19  19 100 S12       30.02F WCI   6
CROSBY         CLOUDY    18  16  92 S7        30.11S WCI   9
TIOGA          CLOUDY    16  16 100 S15       30.12S WCI   1
WATFORD CITY   CLOUDY    18  14  84 SE10      30.07S WCI   6
BISMARCK       MOCLDY    16  10  77 SE6       30.20S WCI   7
GRAND FORKS    CLEAR      7   3  83 CALM      30.32S
FARGO          PTCLDY    12   7  80 W3        30.31R
BUFFALO SD     PTCLDY    19  18  96 S10       29.95S WCI   8
RAPID CITY     CLOUDY    23  19  85 NE5       30.02S WCI  16
$$

REGIONAL REPORTS...WYOMING/IDAHO/WASHINGTON
CITY           SKY/WX    TMP DP  RH WIND       PRES   REMARKS
GILLETTE       CLEAR     19  16  88 SW6       29.94S WCI  11
SHERIDAN       PTCLDY    18  10  71 SW6       29.94S WCI  10
CODY           PTCLDY    16  14  92 S5        29.91S WCI   8
YELLOWSTONE LA PTCLDY    21  16  81 CALM      29.96S
SALMON         CLEAR     23  21  92 CALM      30.02R
MULLAN PASS    LGT SNOW  27  27 100 S3        29.87S
SAND POINT     LGT SNOW  32  32 100 CALM      29.97R
SPOKANE        CLOUDY    36  34  92 NE8       29.91S WCI  30
$$

REGIONAL REPORTS...ALBERTA
CITY           SKY/WX    TMP DP  RH WIND       PRES   REMARKS
CALGARY        PTCLDY    28  19  69 VRB2      29.79R
LETHBRIDGE     FAIR      23  19  85 SW12      29.83R WCI  11
MEDICINE HAT   PTCLDY    23  21  92 SW10      29.86R WCI  13
EDMONTON       CLOUDY    19  18  96 S3        29.83S
WATERTON GATE  N/A       36  25  64 SW17G29    N/A   WCI  26
CARDSTON       N/A       19  18  96 N2         N/A
MILK RIVER     N/A       12  10  92 S6         N/A   WCI   2
$$

REGIONAL REPORTS...SASKATCHEWAN
CITY           SKY/WX    TMP DP  RH WIND       PRES   REMARKS
SWIFT CURRENT  FOG       21  19  92 S15       29.89S WCI   7
REGINA         LGT SNOW  16  14  92 S15       30.06S WCI   1
VAL MARIE      N/A       21  21 100 S7         N/A   WCI  12
ASSINIBOIA     N/A       16  14  92 S12        N/A   WCI   3
CORONACH       N/A       18  16  92 SE9        N/A   WCI   7

$$




USA.gov is the U.S. government's official web portal to all federal, state and local government web resources and services.